Change the Weather History Date:

Wednesday, April 10, 2013

  Actual Average Record
Temperature  
Mean Temperature 26 °F -  
Max Temperature 35 °F 41 °F 71 °F (2006)
Min Temperature 17 °F 32 °F 17 °F (2013)
Degree Days  
Heating Degree Days 40    
Moisture  
Dew Point 14 °F    
Average Humidity 68    
Maximum Humidity 84    
Minimum Humidity 48    
Precipitation  
Precipitation 0.00 in - - ()
Sea Level Pressure  
Sea Level Pressure 30.26 in    
Wind  
Wind Speed 5 mph (SSE)    
Max Wind Speed 13 mph    
Max Gust Speed -    
Visibility 10 miles    
Events      
Averages and records for this station are not official NWS values.
T = Trace of Precipitation, MM = Missing Value Source: NWS Daily Summary

Daily Weather History Graph

Daily Weather History Graph

Search for Another Location

Airport or City:

Trip Planner

Search our weather history database for the weather conditions in past years. The results will help you decide how hot, cold, wet, or windy it might be!

Date:

Astronomy

Apr. 10, 2013 Rise Set
Actual Time 6:18 AM MDT 7:38 PM MDT
Civil Twilight 5:47 AM MDT 8:09 PM MDT
Nautical Twilight 5:10 AM MDT 8:47 PM MDT
Astronomical Twilight 4:30 AM MDT 9:27 PM MDT
Moon 6:14 AM MDT (4/10) 8:20 PM MDT (4/10)
Length of Visible Light 14h 21m
Length of Day
13h 19m
New Moon, 0% of the Moon is Illuminated
Apr 10
New Moon
Apr 18
First Quarter
Apr 25
Full
May 2
Last Quarter
May 9
New

Hourly Weather History & Observations

Time (MDT) Temp. Windchill Dew Point Humidity Pressure Visibility Wind Dir Wind Speed Gust Speed Precip Events Conditions
12:51 AM 18.0 °F 8.7 °F 10.9 °F 74% 30.44 in 10.0 mi NW 6.9 mph - N/A   Partly Cloudy
1:31 AM 17.6 °F 9.3 °F 12.2 °F 79% 30.28 in 10.0 mi NW 5.8 mph - N/A   Mostly Cloudy
1:51 AM 19.0 °F 10.0 °F 12.0 °F 74% 30.40 in 10.0 mi NW 6.9 mph - N/A   Overcast
2:51 AM 18.0 °F 9.8 °F 12.0 °F 78% 30.40 in 10.0 mi West 5.8 mph - N/A   Overcast
3:27 AM 17.6 °F 10.7 °F 12.2 °F 79% 30.28 in 10.0 mi WNW 4.6 mph - N/A   Scattered Clouds
3:51 AM 17.1 °F 11.7 °F 10.9 °F 77% 30.41 in 10.0 mi NW 3.5 mph - N/A   Clear
4:51 AM 18.0 °F 11.1 °F 12.9 °F 81% 30.39 in 10.0 mi WNW 4.6 mph - N/A   Scattered Clouds
5:51 AM 17.1 °F 11.7 °F 12.0 °F 81% 30.38 in 10.0 mi WNW 3.5 mph - N/A   Overcast
6:51 AM 17.1 °F - 12.0 °F 81% 30.37 in 10.0 mi Calm Calm - N/A   Overcast
7:51 AM 17.1 °F - 12.9 °F 84% 30.37 in 10.0 mi Calm Calm - N/A   Clear
8:51 AM 19.9 °F - 12.9 °F 74% 30.36 in 10.0 mi Calm Calm - N/A   Clear
9:51 AM 24.1 °F - 14.0 °F 65% 30.35 in 10.0 mi Calm Calm - N/A   Overcast
10:51 AM 26.1 °F 21.9 °F 15.1 °F 63% 30.33 in 10.0 mi NW 3.5 mph - N/A   Overcast
11:51 AM 28.0 °F - 14.0 °F 56% 30.30 in 10.0 mi Calm Calm - N/A   Mostly Cloudy
12:51 PM 28.0 °F 21.7 °F 15.1 °F 58% 30.28 in 10.0 mi SE 5.8 mph - N/A   Clear
1:51 PM 28.9 °F 25.2 °F 15.1 °F 56% 30.25 in 10.0 mi ESE 3.5 mph - N/A   Clear
2:51 PM 30.9 °F 26.2 °F 15.1 °F 52% 30.20 in 10.0 mi SE 4.6 mph - N/A   Partly Cloudy
3:51 PM 33.1 °F 26.9 °F 16.0 °F 50% 30.16 in 10.0 mi SE 6.9 mph - N/A   Clear
4:51 PM 34.0 °F 29.8 °F 16.0 °F 48% 30.13 in 10.0 mi ESE 4.6 mph - N/A   Clear
5:51 PM 34.0 °F 25.5 °F 16.0 °F 48% 30.12 in 10.0 mi ESE 11.5 mph - N/A   Clear
6:51 PM 33.1 °F 23.9 °F 17.1 °F 52% 30.11 in 10.0 mi SE 12.7 mph - N/A   Clear
7:51 PM 28.9 °F 21.1 °F 19.0 °F 67% 30.09 in 10.0 mi ESE 8.1 mph - N/A   Clear
9:51 PM 26.1 °F 16.2 °F 19.0 °F 75% 30.06 in 10.0 mi SE 10.4 mph - N/A   Clear
10:51 PM 25.0 °F 14.2 °F 18.0 °F 75% 30.02 in 10.0 mi SE 11.5 mph - N/A   Clear
11:51 PM 25.0 °F 16.3 °F 18.0 °F 75% 30.00 in 10.0 mi SSE 8.1 mph - N/A   Clear